Location: Elko Observing site
(32.3606°N, 83.7235°W)
Time: 12:03:35
(UTC-04:00)

Envisat - Visible Passes

Search period start: 18 March 2019 00:00
Search period end: 28 March 2019 00:00
Orbit: 764 x 766 km, 98.2° (Epoch: 18 March)

Date Brightness Start Highest point End Pass type
(mag) Time Alt. Az. Time Alt. Az. Time Alt. Az.
18 Mar 3.2 20:25:06 10° S 20:30:09 78° WSW 20:35:15 10° NNW visible
19 Mar 5.8 21:29:28 10° SW 21:32:40 17° W 21:35:52 10° NW visible
20 Mar 4.4 20:50:58 10° SSW 20:55:43 41° W 21:00:30 10° NNW visible
21 Mar 3.0 20:13:53 10° SSE 20:18:57 81° ENE 20:24:03 10° N visible
22 Mar 5.5 21:17:31 10° SW 21:21:22 22° W 21:25:15 10° NW visible
23 Mar 3.9 20:39:32 10° S 20:44:29 53° W 20:49:27 10° NNW visible
24 Mar 3.0 20:02:46 10° SSE 20:07:46 63° ENE 20:12:47 10° N visible
24 Mar 6.1 21:45:38 10° WSW 21:47:07 11° W 21:48:34 10° WNW visible
25 Mar 5.1 21:05:46 10° SSW 21:10:05 28° W 21:14:26 10° NW visible
26 Mar 3.4 20:28:12 10° S 20:33:15 70° WSW 20:38:20 10° NNW visible
27 Mar 5.9 21:32:56 10° SW 21:35:47 15° W 21:38:39 10° WNW visible
